Torna al catalogo

NOAA 16 DEB

AttivoPO
NORAD 41221·DEBRIS·🇺🇸 United States

Lanciato Sep 21, 2000 da Vandenberg Space Force Base

Loading…

Prossimi Passaggi (prossime 24 ore)

TLE

AggiornatoSource: Space-Track

Epoca: Sep 14, 2026, 11:35 UTC

1 41221U 00055EA  26257.48320082  .00003365  00000-0  80517-3 0  9990
2 41221  98.9728 148.2387 0039151 150.5021 209.8394 14.53838835562322

Traccia NOAA 16 DEB in tempo reale con AllMySat

Download on the App Store